Time,TemperatureF,DewpointF,PressureIn,WindDirection,WindDirectionDegrees,WindSpeedMPH,WindSpeedGustMPH,Humidity,HourlyPrecipIn,Conditions,Clouds,dailyrainin,SoftwareType,DateUTC
2013-04-30 00:30:00,59.2,54.1,29.76,SSE,158,5.6,5.6,83,0.00,,,0.00,WUHU21623XXSP,2013-04-30 05:30:00,
2013-04-30 01:30:00,58.8,53.7,29.76,WSW,248,11.2,11.2,83,0.00,,,0.00,WUHU21623XXSP,2013-04-30 06:30:00,
2013-04-30 02:30:00,59.5,54.7,29.75,South,180,12.8,12.8,84,0.00,,,0.00,WUHU21623XXSP,2013-04-30 07:30:00,
2013-04-30 03:30:00,58.8,54.0,29.77,SW,225,5.8,5.8,84,0.00,,,0.00,WUHU21623XXSP,2013-04-30 08:30:00,
2013-04-30 04:30:00,57.6,53.1,29.78,SSW,203,3.1,3.1,85,0.00,,,0.00,WUHU21623XXSP,2013-04-30 09:30:00,
2013-04-30 05:30:00,56.7,52.6,29.78,SSE,158,4.9,4.9,86,0.00,,,0.00,WUHU21623XXSP,2013-04-30 10:30:00,
2013-04-30 06:30:00,56.8,52.7,29.80,SSW,203,9.4,9.4,86,0.00,,,0.00,WUHU21623XXSP,2013-04-30 11:30:00,
2013-04-30 07:30:00,59.7,55.2,29.82,WSW,248,3.6,3.6,85,0.00,,,0.00,WUHU21623XXSP,2013-04-30 12:30:00,
2013-04-30 08:30:00,65.1,58.8,29.83,SW,225,9.2,9.2,80,0.00,,,0.00,WUHU21623XXSP,2013-04-30 13:30:00,
2013-04-30 09:30:00,67.8,60.8,29.82,SSW,203,9.2,9.2,78,0.00,,,0.00,WUHU21623XXSP,2013-04-30 14:30:00,
2013-04-30 10:30:00,72.3,62.5,29.82,SW,225,16.3,16.3,71,0.00,,,0.00,WUHU21623XXSP,2013-04-30 15:30:00,
2013-04-30 11:30:00,74.3,62.4,29.83,SW,225,10.5,10.5,66,0.00,,,0.00,WUHU21623XXSP,2013-04-30 16:30:00,
2013-04-30 12:30:00,77.2,64.3,29.82,SW,225,8.1,8.1,64,0.00,,,0.00,WUHU21623XXSP,2013-04-30 17:30:00,
2013-04-30 13:30:00,80.2,66.2,29.83,SW,225,5.1,5.1,62,0.00,,,0.00,WUHU21623XXSP,2013-04-30 18:30:00,
2013-04-30 14:30:00,81.3,65.3,29.82,WSW,248,5.8,5.8,58,0.00,,,0.00,WUHU21623XXSP,2013-04-30 19:30:00,
2013-04-30 15:30:00,81.5,64.0,29.82,WSW,248,15.7,15.7,55,0.00,,,0.00,WUHU21623XXSP,2013-04-30 20:30:00,
2013-04-30 16:30:00,81.3,61.6,29.83,WSW,248,13.4,13.4,51,0.00,,,0.00,WUHU21623XXSP,2013-04-30 21:30:00,
2013-04-30 17:30:00,79.9,61.4,29.84,SW,225,10.7,10.7,53,0.00,,,0.00,WUHU21623XXSP,2013-04-30 22:30:00,
2013-04-30 18:30:00,79.7,59.5,29.86,WSW,248,11.2,11.2,50,0.00,,,0.00,WUHU21623XXSP,2013-04-30 23:30:00,
2013-04-30 19:30:00,72.7,57.2,29.87,SSE,158,0.0,0.0,58,0.00,,,0.00,WUHU21623XXSP,2013-05-01 00:30:00,
2013-04-30 20:30:00,67.6,56.4,29.89,South,180,0.0,0.0,67,0.00,,,0.00,WUHU21623XXSP,2013-05-01 01:30:00,
2013-04-30 21:30:00,66.0,57.6,29.91,South,180,10.3,10.3,74,0.00,,,0.00,WUHU21623XXSP,2013-05-01 02:30:00,
2013-04-30 22:24:00,64.6,56.8,29.92,South,180,8.3,8.3,76,0.00,,,0.00,WUHU21623XXSP,2013-05-01 03:24:00,
2013-04-30 22:29:00,64.6,56.8,29.92,South,180,4.0,8.3,76,1.33,,,1.33,WUHU21623XXSP,2013-05-01 03:29:00,
2013-04-30 22:34:00,64.2,56.5,29.92,SSE,157,0.0,9.6,76,0.00,,,1.33,WUHU21623XXSP,2013-05-01 03:34:00,
2013-04-30 22:39:00,64.2,56.8,29.92,SSE,157,6.9,9.6,77,0.00,,,1.33,WUHU21623XXSP,2013-05-01 03:39:00,
2013-04-30 22:44:00,64.0,56.7,29.93,South,180,5.8,9.6,77,0.00,,,1.33,WUHU21623XXSP,2013-05-01 03:44:00,
2013-04-30 22:49:00,64.0,56.7,29.93,South,180,1.3,10.5,77,0.00,,,1.33,WUHU21623XXSP,2013-05-01 03:49:00,
2013-04-30 22:54:00,63.7,56.3,29.93,South,180,0.9,10.5,77,0.00,,,1.33,WUHU21623XXSP,2013-05-01 03:54:00,
2013-04-30 22:59:00,63.7,56.7,29.93,South,180,8.1,9.2,78,0.00,,,1.33,WUHU21623XXSP,2013-05-01 03:59:00,
2013-04-30 23:01:00,63.5,56.5,29.93,South,180,6.0,9.2,78,0.00,,,1.33,WUHU21623XXSP,2013-05-01 04:01:00,
2013-04-30 23:02:00,63.5,56.5,29.93,SSE,157,6.0,9.2,78,0.00,,,1.33,WUHU21623XXSP,2013-05-01 04:02:00,
2013-04-30 23:07:00,63.5,56.5,29.93,South,180,5.6,9.2,78,0.00,,,1.33,WUHU21623XXSP,2013-05-01 04:07:00,
2013-04-30 23:12:00,63.3,56.3,29.94,South,180,7.2,8.1,78,0.00,,,1.33,WUHU21623XXSP,2013-05-01 04:12:00,
2013-04-30 23:17:00,63.3,56.3,29.94,SSE,157,6.3,11.0,78,0.00,,,1.33,WUHU21623XXSP,2013-05-01 04:17:00,
2013-04-30 23:22:00,63.5,56.5,29.94,SE,135,6.0,13.0,78,0.00,,,1.33,WUHU21623XXSP,2013-05-01 04:22:00,
2013-04-30 23:27:00,63.5,56.5,29.94,South,180,0.0,15.0,78,0.00,,,1.33,WUHU21623XXSP,2013-05-01 04:27:00,
2013-04-30 23:32:00,63.7,56.7,29.94,SSW,202,11.6,15.0,78,0.00,,,1.33,WUHU21623XXSP,2013-05-01 04:32:00,
2013-04-30 23:37:00,63.7,56.7,29.94,South,180,6.5,14.3,78,0.00,,,1.33,WUHU21623XXSP,2013-05-01 04:37:00,
2013-04-30 23:42:00,63.7,56.7,29.94,SSW,202,4.3,10.1,78,0.00,,,1.33,WUHU21623XXSP,2013-05-01 04:42:00,
2013-04-30 23:47:00,63.7,56.7,29.94,South,180,6.5,9.2,78,0.00,,,1.33,WUHU21623XXSP,2013-05-01 04:47:00,
2013-04-30 23:52:00,63.5,56.5,29.95,South,180,0.0,9.2,78,0.00,,,1.33,WUHU21623XXSP,2013-05-01 04:52:00,
2013-04-30 23:57:00,63.3,56.3,29.95,SW,225,5.8,7.4,78,0.00,,,1.33,WUHU21623XXSP,2013-05-01 04:57:00,